Regional Weather Roundup
Issued by NWS

Home | Current Version | Previous Version | Text Only | Print | Product List | Glossary On
Versions: 1 2 3 4 5 6 7 8 9 10 11 12 13 14 15 16 17 18 19 20 21 22 23 24 25 26 27 28 29 30 31 32 33 34 35 36 37 38 39 40 41 42 43 44 45 46 47 48 49 50
000
ASUS44 KMEG 281410
RWRTN
TENNESSEE HOURLY STATE WEATHER ROUNDUP
NATIONAL WEATHER SERVICE MEMPHIS TN
900 AM CDT WED JUN 28 2017

TNZ002-004-019-021-049-052-054-088>092-281500-
WEST TENNESSEE

CITY           SKY/WX    TMP DP  RH WIND       PRES   REMARKS
MEMPHIS INTL   MOSUNNY   79  65  62 S10       30.08R
NWS MEMPHIS      N/A     79 N/A N/A MISG        N/A
JACKSON        SUNNY     76  63  64 S7        30.11R
SOMERVILLE     SUNNY     77  64  65 CALM      30.09R
COVINGTON      SUNNY     77  63  61 S7        30.09R
UNION CITY     SUNNY     75  61  60 S10       30.09S
BOLIVAR        SUNNY     75  63  64 SE6       30.10R
HUNTINGDON     SUNNY     73  61  64 SE7       30.11R
LEXINGTON      SUNNY     73  61  64 SE6       30.12R
SELMER         SUNNY     75  63  64 SE9       30.11S
SAVANNAH       SUNNY     75  63  64 VRB6      30.10S
$$

TNZ008-025-027-028-033-062-065-066-281500-
NORTH MIDDLE TENNESSEE

CITY           SKY/WX    TMP DP  RH WIND       PRES   REMARKS
NASHVILLE      MOSUNNY   74  60  61 S6        30.15F
PORTLAND       SUNNY     73  59  60 S10       30.15R
CLARKSVILLE    SUNNY     72  58  61 VRB3      30.14R
SMYRNA         SUNNY     72  60  66 SE3       30.16F
COOKEVILLE     SUNNY     72  59  64 CALM      30.18F
GALLATIN       SUNNY     70  59  68 SE3       30.18S
CROSSVILLE     SUNNY     67  51  56 SE5       30.22S
$$

TNZ061-075-076-078-094-096-097-281500-
SOUTH MIDDLE TENNESSEE

CITY           SKY/WX    TMP DP  RH WIND       PRES   REMARKS
FAYETTEVILLE   SUNNY     73  59  60 SE6       30.15F
TULLAHOMA      SUNNY     73  52  46 SE5       30.17F
WINCHESTER     SUNNY     73  57  56 SE7       30.17S
MCMINNVILLE    SUNNY     72  61  68 E5        30.18F
COLUMBIA       SUNNY     72  63  73 CALM      30.13S
SHELBYVILLE    SUNNY     73  59  60 SE6       30.15F
$$

TNZ017-018-042-046-047-281500-
NORTHEAST TENNESSEE

CITY           SKY/WX    TMP DP  RH WIND       PRES   REMARKS
TRI CITIES     MOSUNNY   67  55  65 E5        30.25R
ELIZABETHTON   SUNNY     68  54  60 CALM      30.25S
$$

TNZ012-013-036-069-073-074-281500-
CENTRAL EAST TENNESSEE

CITY           SKY/WX    TMP DP  RH WIND       PRES   REMARKS
KNOXVILLE      MOSUNNY   68  54  60 CALM      30.20R
OAK RIDGE      SUNNY     70  54  56 CALM      30.22S
DOWNTOWN KNOXV SUNNY     68  57  68 CALM      30.21S
GATLINBURG     SUNNY     66  54  63 CALM      30.21S
MORRISTOWN     SUNNY     68  54  60 VRB5      30.21S
JACKSBORO      SUNNY     68  52  56 CALM      30.25S
$$

TNZ083-085-099-281500-
SOUTHEAST TENNESSEE

CITY           SKY/WX    TMP DP  RH WIND       PRES   REMARKS
CHATTANOOGA    MOSUNNY   71  59  65 N5        30.20R
DAYTON         SUNNY     70  61  73 VRB6      30.19R
$$

SKY/WX REPORTED AS FAIR MEANS FEW OR NO CLOUDS BELOW
12 THOUSAND FEET.




USA.gov is the U.S. government's official web portal to all federal, state and local government web resources and services.